Вернуться в каталог

STARLINK-11172

АктивенСвязьVLEO
NORAD 60193·PAYLOAD·🇺🇸 United States

Запущен Jul 3, 2024 с Cape Canaveral Space Force Station

Loading…

Ближайшие Пролёты (ближайшие 24 часа)

TLE

СвежийSource: CelesTrak SupGP

Эпоха: Sep 14, 2026, 13:58 UTC

1 60193C 24124L   26257.58243056  .00070708  00000+0  58261-3 0  2570
2 60193  53.1569 310.1674 0001299  84.2293 168.3409 15.69666883    11

Отслеживайте STARLINK-11172 в реальном времени с AllMySat

Download on the App Store